Location: *
(11.7485°N, 79.7483°E)
Time: 02:51:04
(UTC+00:00)

Spot 2 - Pass Details

Date: 22 January 2021
Orbit: 570 x 774 km, 98.8° (Epoch: 05 March)

Event Time Altitude Azimuth Distance (km) Brightness Sun altitude
Rises 00:18:17 0° 17° (NNE) 2,771 7.4 -11.9°
Reaches altitude 10° 00:20:24 10° 20° (NNE) 1,885 6.6 -11.4°
Maximum altitude 00:24:26 65° 102° (ESE) 650 4.5 -10.4°
Drops below altitude 10° 00:28:38 10° 184° (S) 1,964 6.8 -9.5°
Sets 00:30:53 0° 187° (S) 2,899 7.7 -8.9°
